This demonstration page uses our WeatherBlox Daily Observations layout. Learn more.

Left ArrowRight Arrow

39.08367, -84.50855

Hourly Observations for August 24, 2020

Temp ( °F °C ) Dew Point ( °F °C ) Humidity (%) Winds ( mph kmh ) Pressure ( in mb ) Visibility ( mi km ) Precip ( " mm )
12:53 am 00:53 Clear 69 20.6 68 20 96 96 N N/A 30.06 1018 8 13 N/A
1:53 am 01:53 Clear 69 20.6 67 19.4 93 93 N N/A 30.06 1018 8 13 N/A
2:02 am 02:02 Clear with Mist and Fog 68 20 66 18.9 93 93 N N/A 30.06 1018 3 4 N/A
2:11 am 02:11 Clear with Mist and Fog 68 20 67 19.4 96 96 N N/A 30.06 1018 3 5 N/A
2:35 am 02:35 Clear with Mist and Fog 67 19.4 66 18.9 97 97 N N/A 30.05 1018 2 3 N/A
2:42 am 02:42 Clear with Mist and Fog 67 19.4 66 18.9 97 97 N N/A 30.05 1018 3 5 N/A
2:53 am 02:53 Clear with Mist and Fog 68 20 66 18.9 93 93 N N/A 30.05 1018 3 5 N/A
3:26 am 03:26 Clear with Mist and Fog 67 19.4 66 18.9 97 97 N N/A 30.06 1018 2 3 N/A
3:34 am 03:34 Clear with Fog 66 18.9 65 18.3 96 96 N N/A 30.06 1018 0 0 N/A
3:44 am 03:44 Clear with Mist and Fog 67 19.4 66 18.9 97 97 N N/A 30.06 1018 1 2 N/A
3:47 am 03:47 Clear with Mist and Fog 66 19 66 19 100 100 N N/A 30.06 1018 3 5 N/A
3:53 am 03:53 Clear with Mist and Fog 67 19.4 66 18.9 97 97 N N/A 30.06 1018 4 6 N/A
3:57 am 03:57 Clear with Mist and Fog 65 18.3 65 18.3 100 100 N N/A 30.06 1018 2 2 N/A
4:06 am 04:06 Mostly Cloudy with Fog 66 18.9 65 18.3 96 96 N N/A 30.06 1018 1 1 N/A
4:12 am 04:12 Mostly Cloudy with Mist and Fog 67 19.4 66 18.9 97 97 N N/A 30.06 1018 1 2 N/A
4:15 am 04:15 Partly Cloudy with Mist and Fog 67 19.4 66 18.9 97 97 N N/A 30.06 1018 3 5 N/A
4:30 am 04:30 Mostly Clear with Mist and Fog 66 18.9 65 18.3 96 96 N N/A 30.07 1018 2 3 N/A
4:38 am 04:38 Mostly Clear with Mist and Fog 66 18.9 65 18.3 96 96 N N/A 30.06 1018 3 5 N/A
4:53 am 04:53 Partly Cloudy 67 19.4 66 18.9 97 97 N N/A 30.06 1018 10 16 N/A
4:57 am 04:57 Mostly Clear with Mist and Fog 67 19.4 66 18.9 97 97 N N/A 30.07 1018 2 3 N/A
5:09 am 05:09 Mostly Clear with Mist and Fog 66 18.9 65 18.3 96 96 N N/A 30.07 1018 3 5 N/A
5:15 am 05:15 Mostly Clear with Mist and Fog 65 18.3 65 18.3 100 100 N N/A 30.07 1018 2 3 N/A
5:23 am 05:23 Clear with Mist and Fog 66 18.9 65 18.3 96 96 N N/A 30.07 1018 4 6 N/A
5:39 am 05:39 Mostly Clear with Mist and Fog 67 19.4 66 18.9 97 97 N N/A 30.07 1018 3 5 N/A
5:44 am 05:44 Mostly Clear with Mist and Fog 66 18.9 65 18.3 96 96 ENE 3 6 30.07 1018 2 3 N/A
5:53 am 05:53 Mostly Clear with Mist and Fog 67 19.4 66 18.9 97 97 N N/A 30.07 1018 2 3 N/A
6:05 am 06:05 Mostly Clear with Mist and Fog 66 18.9 65 18.3 96 96 N N/A 30.08 1019 3 5 N/A
6:21 am 06:21 Clear with Mist and Fog 66 18.9 65 18.3 96 96 N N/A 30.08 1019 2 3 N/A
6:32 am 06:32 Mostly Clear with Mist and Fog 66 18.9 66 18.9 100 100 N N/A 30.08 1019 6 10 N/A
6:53 am 06:53 Mostly Clear with Mist and Fog 64 17.8 64 17.8 100 100 N N/A 30.08 1019 6 10 N/A
7:53 am 07:53 Partly Cloudy with Mist and Fog 67 19.4 66 18.9 97 97 N N/A 30.09 1019 4 6 N/A
8:53 am 08:53 Sunny 72 22.2 69 20.6 91 91 N N/A 30.10 1019 10 16 N/A
9:53 am 09:53 Sunny 77 25 70 21.1 79 79 SSW 6 9 30.11 1020 10 16 N/A
10:53 am 10:53 Mostly Sunny 81 27.2 71 21.7 72 72 S 6 9 30.11 1020 10 16 N/A
11:53 am 11:53 Mostly Cloudy 83 28.3 67 19.4 59 59 WSW 10 17 30.11 1020 10 16 N/A
12:53 pm 12:53 Partly Cloudy 84 28.9 67 19.4 57 57 WSW 13 20 30.09 1019 10 16 N/A
1:53 pm 13:53 Mostly Cloudy 85 29.4 69 20.6 59 59 SW 12 19 30.08 1019 10 16 N/A
2:53 pm 14:53 Mostly Cloudy 87 30.6 69 20.6 55 55 SSW 12 19 30.06 1018 10 16 N/A
3:53 pm 15:53 Mostly Cloudy 88 31.1 69 20.6 54 54 SW 14 22 30.04 1017 10 16 N/A
4:53 pm 16:53 Mostly Sunny 87 30.6 68 20 53 53 WSW 12 19 30.02 1017 10 16 N/A
5:53 pm 17:53 Partly Cloudy 87 30.6 68 20 53 53 WSW 12 19 30.01 1016 10 16 N/A
6:53 pm 18:53 Partly Cloudy 86 30 68 20 55 55 SW 13 20 30.01 1016 10 16 N/A
7:53 pm 19:53 Sunny 82 27.8 68 20 63 63 WSW 9 15 30.02 1017 10 16 N/A
8:53 pm 20:53 Clear 76 24.4 69 20.6 79 79 S 5 7 30.03 1017 10 16 N/A
9:53 pm 21:53 Clear 74 23.3 70 21.1 88 88 N N/A 30.04 1017 10 16 N/A
10:53 pm 22:53 Mostly Clear 74 23.3 70 21.1 88 88 N N/A 30.05 1018 10 16 N/A
11:53 pm 23:53 Clear 74 23.3 70 21.1 88 88 N N/A 30.05 1018 10 16 N/A

Powered by AerisWeather